• In United Kingdom
  • List of Countries
  • For 7 days
  • Water Temperature
  • Satellite Maps
  • Weather Map
  • Weather Widgets
  • user-avatar
    Login

    Hourly Weather Malanje

    Today, 19 September, Tuesday

    Time Temperature Precipitation Wind Pressure Humidity
    00:00 +21°C° 0 mm 3 mps 666 mmHg 74%
    01:00 +20°C° 0 mm 4 mps 666 mmHg 78%
    02:00 +20°C° 0 mm 3 mps 666 mmHg 80%
    03:00 +19°C° 0 mm 3 mps 666 mmHg 81%
    04:00 +19°C° 0 mm 3 mps 665 mmHg 83%
    05:00 +19°C° 0 mm 3 mps 666 mmHg 82%
    06:00 +19°C° 0 mm 3 mps 666 mmHg 80%
    07:00 +20°C° 0 mm 3 mps 667 mmHg 77%
    08:00 +24°C° 0 mm 3 mps 667 mmHg 66%
    09:00 +26°C° 0 mm 3 mps 667 mmHg 55%
    10:00 +29°C° 0 mm 3 mps 668 mmHg 45%
    11:00 +32°C° 0 mm 2 mps 668 mmHg 38%
    12:00 +35°C° 0 mm 2 mps 667 mmHg 31%
    13:00 +37°C° 0 mm 2 mps 667 mmHg 27%
    14:00 +36°C° 0 mm 2 mps 667 mmHg 27%
    15:00 +36°C° 0 mm 2 mps 666 mmHg 27%
    16:00 +35°C° 0 mm 2 mps 666 mmHg 27%
    17:00 +32°C° 0 mm 2 mps 666 mmHg 32%
    18:00 +31°C° 0 mm 2 mps 666 mmHg 36%
    19:00 +29°C° 0 mm 3 mps 666 mmHg 41%
    20:00 +28°C° 0 mm 3 mps 666 mmHg 47%
    21:00 +26°C° 0 mm 3 mps 666 mmHg 54%
    22:00 +25°C° 0 mm 3 mps 666 mmHg 60%
    23:00 +24°C° 0 mm 3 mps 666 mmHg 64%

    Tomorrow, 20 September, Wednesday

    Time Temperature Precipitation Wind Pressure Humidity
    00:00 +22°C° 0 mm 3 mps 666 mmHg 67%
    01:00 +22°C° 0 mm 3 mps 665 mmHg 71%
    02:00 +21°C° 0 mm 3 mps 665 mmHg 74%
    03:00 +20°C° 0 mm 2 mps 665 mmHg 77%
    04:00 +20°C° 0 mm 2 mps 665 mmHg 80%
    05:00 +20°C° 0 mm 2 mps 665 mmHg 79%
    06:00 +20°C° 0 mm 2 mps 666 mmHg 78%
    07:00 +21°C° 0 mm 1 mps 666 mmHg 77%
    08:00 +24°C° 0 mm 1 mps 667 mmHg 65%
    09:00 +27°C° 0 mm 1 mps 668 mmHg 54%
    10:00 +31°C° 0 mm 1 mps 669 mmHg 42%
    11:00 +32°C° 0 mm 1 mps 668 mmHg 37%
    12:00 +35°C° 0 mm 2 mps 668 mmHg 33%
    13:00 +36°C° 0 mm 2 mps 667 mmHg 28%
    14:00 +35°C° 0 mm 2 mps 666 mmHg 29%
    15:00 +35°C° 0 mm 2 mps 666 mmHg 30%
    16:00 +34°C° 0 mm 2 mps 665 mmHg 31%
    17:00 +32°C° 0 mm 2 mps 665 mmHg 34%
    18:00 +30°C° 0 mm 1 mps 665 mmHg 37%
    19:00 +29°C° 0 mm 1 mps 665 mmHg 40%
    20:00 +28°C° 0 mm 1 mps 665 mmHg 42%
    21:00 +27°C° 0 mm 1 mps 666 mmHg 45%
    22:00 +26°C° 0 mm 1 mps 666 mmHg 47%
    23:00 +26°C° 0 mm 2 mps 666 mmHg 51%

    Day after tomorrow, 21 September, Thursday

    Time Temperature Precipitation Wind Pressure Humidity
    00:00 +25°C° 0 mm 2 mps 665 mmHg 56%
    01:00 +24°C° 0 mm 2 mps 665 mmHg 60%
    02:00 +23°C° 0 mm 2 mps 665 mmHg 65%
    03:00 +21°C° 0 mm 2 mps 664 mmHg 70%
    04:00 +20°C° 0 mm 2 mps 664 mmHg 75%
    05:00 +21°C° 0 mm 2 mps 665 mmHg 75%
    06:00 +21°C° 0 mm 2 mps 665 mmHg 74%
    07:00 +21°C° 0 mm 2 mps 666 mmHg 73%
    08:00 +26°C° 0 mm 2 mps 667 mmHg 61%
    09:00 +29°C° 0 mm 2 mps 667 mmHg 48%
    10:00 +34°C° 0 mm 2 mps 668 mmHg 36%
    11:00 +36°C° 0 mm 2 mps 668 mmHg 31%
    12:00 +38°C° 0 mm 2 mps 667 mmHg 27%
    13:00 +40°C° 0 mm 1 mps 667 mmHg 22%
    14:00 +37°C° 0 mm 1 mps 666 mmHg 24%
    15:00 +35°C° 0 mm 1 mps 665 mmHg 26%
    16:00 +34°C° 0 mm 1 mps 665 mmHg 28%
    17:00 +34°C° 0 mm 2 mps 665 mmHg 31%
    18:00 +31°C° 0 mm 2 mps 665 mmHg 34%
    19:00 +30°C° 0 mm 2 mps 665 mmHg 38%
    20:00 +29°C° 0.1 mm 3 mps 665 mmHg 43%
    21:00 +28°C° 0.1 mm 3 mps 665 mmHg 48%
    22:00 +26°C° 0.1 mm 3 mps 666 mmHg 53%
    23:00 +25°C° 0 mm 3 mps 665 mmHg 58%

    22 September, Friday

    Time Temperature Precipitation Wind Pressure Humidity
    00:00 +24°C° 0 mm 2 mps 665 mmHg 63%
    01:00 +23°C° 0 mm 2 mps 665 mmHg 68%
    02:00 +21°C° 0.2 mm 2 mps 664 mmHg 72%
    03:00 +21°C° 0.2 mm 2 mps 664 mmHg 76%
    04:00 +21°C° 0.2 mm 1 mps 664 mmHg 79%
    05:00 +20°C° 0.2 mm 2 mps 664 mmHg 79%
    06:00 +20°C° 0.2 mm 2 mps 665 mmHg 78%
    07:00 +20°C° 0.2 mm 2 mps 665 mmHg 77%
    08:00 +25°C° 0 mm 2 mps 666 mmHg 65%
    09:00 +28°C° 0 mm 2 mps 667 mmHg 52%
    10:00 +32°C° 0 mm 2 mps 668 mmHg 39%
    11:00 +35°C° 0 mm 2 mps 667 mmHg 33%
    12:00 +37°C° 0 mm 2 mps 667 mmHg 27%
    13:00 +40°C° 0 mm 1 mps 666 mmHg 21%
    14:00 +39°C° 0 mm 1 mps 666 mmHg 23%
    15:00 +37°C° 0 mm 1 mps 665 mmHg 24%
    16:00 +35°C° 0 mm 1 mps 665 mmHg 25%
    17:00 +33°C° 0 mm 1 mps 665 mmHg 31%
    18:00 +31°C° 0 mm 2 mps 665 mmHg 37%
    19:00 +28°C° 0 mm 3 mps 665 mmHg 44%
    20:00 +27°C° 0.8 mm 3 mps 665 mmHg 50%
    21:00 +26°C° 0.8 mm 3 mps 665 mmHg 56%
    22:00 +25°C° 0.8 mm 3 mps 666 mmHg 63%
    23:00 +24°C° 0.1 mm 3 mps 665 mmHg 66%

    23 September, Saturday

    Time Temperature Precipitation Wind Pressure Humidity
    00:00 +22°C° 0.1 mm 3 mps 665 mmHg 69%
    01:00 +21°C° 0.1 mm 3 mps 664 mmHg 73%
    02:00 +20°C° 0 mm 3 mps 664 mmHg 76%
    03:00 +20°C° 0 mm 3 mps 664 mmHg 80%
    04:00 +19°C° 0 mm 3 mps 664 mmHg 83%
    05:00 +19°C° 0 mm 3 mps 664 mmHg 82%
    06:00 +19°C° 0 mm 3 mps 665 mmHg 82%
    07:00 +19°C° 0 mm 3 mps 665 mmHg 81%
    08:00 +22°C° 0 mm 3 mps 666 mmHg 70%
    09:00 +26°C° 0 mm 2 mps 667 mmHg 58%
    10:00 +29°C° 0 mm 2 mps 667 mmHg 47%
    11:00 +32°C° 0 mm 2 mps 667 mmHg 40%
    12:00 +36°C° 0 mm 2 mps 667 mmHg 32%
    13:00 +39°C° 0 mm 1 mps 666 mmHg 25%
    14:00 +38°C° 0 mm 2 mps 666 mmHg 26%
    15:00 +36°C° 0 mm 2 mps 665 mmHg 27%
    16:00 +35°C° 0 mm 2 mps 664 mmHg 27%
    17:00 +33°C° 0 mm 3 mps 665 mmHg 32%
    18:00 +30°C° 0 mm 3 mps 665 mmHg 37%
    19:00 +28°C° 0 mm 4 mps 665 mmHg 42%
    20:00 +27°C° 0.1 mm 4 mps 665 mmHg 47%
    21:00 +26°C° 0.1 mm 3 mps 666 mmHg 52%
    22:00 +25°C° 0.1 mm 3 mps 666 mmHg 56%
    23:00 +24°C° 0 mm 3 mps 666 mmHg 63%

    24 September, Sunday

    Time Temperature Precipitation Wind Pressure Humidity
    00:00 +21°C° 0 mm 3 mps 665 mmHg 71%
    01:00 +20°C° 0 mm 3 mps 665 mmHg 78%
    02:00 +20°C° 0 mm 3 mps 665 mmHg 79%
    03:00 +19°C° 0 mm 3 mps 665 mmHg 81%
    04:00 +19°C° 0 mm 3 mps 665 mmHg 83%
    05:00 +19°C° 0 mm 3 mps 665 mmHg 81%
    06:00 +20°C° 0 mm 3 mps 666 mmHg 79%
    07:00 +20°C° 0 mm 3 mps 666 mmHg 77%
    08:00 +24°C° 0 mm 3 mps 667 mmHg 65%
    09:00 +27°C° 0 mm 2 mps 667 mmHg 54%
    10:00 +30°C° 0 mm 2 mps 668 mmHg 42%
    11:00 +32°C° 0 mm 2 mps 667 mmHg 37%
    12:00 +35°C° 0 mm 2 mps 667 mmHg 31%
    13:00 +38°C° 0 mm 2 mps 666 mmHg 26%
    14:00 +37°C° 0 mm 2 mps 666 mmHg 27%
    15:00 +36°C° 0 mm 2 mps 665 mmHg 27%
    16:00 +35°C° 0 mm 2 mps 664 mmHg 28%
    17:00 +32°C° 0.1 mm 2 mps 665 mmHg 32%
    18:00 +30°C° 0.1 mm 3 mps 665 mmHg 37%
    19:00 +29°C° 0.1 mm 3 mps 665 mmHg 41%
    20:00 +27°C° 0.1 mm 3 mps 665 mmHg 45%
    21:00 +26°C° 0.1 mm 2 mps 665 mmHg 48%
    22:00 +25°C° 0.1 mm 2 mps 666 mmHg 52%
    23:00 +24°C° 0.1 mm 2 mps 665 mmHg 57%
    Show more